Location: Mentone
(34.5413°N, 85.5351°W)
Time: 10:35:40
(UTC-06:00)

Centaur AC-72 - Visible Passes

Search period start: 05 December 2016 00:00
Search period end: 15 December 2016 00:00
Orbit: 1115 x 35242 km, 19.5° (Epoch: 04 December)

Date Brightness Start Highest point End Pass type
(mag) Time Alt. Az. Time Alt. Az. Time Alt. Az.
05 Dec 7.3 05:41:42 10° W 06:55:48 34° SW 11:32:54 10° SW visible
06 Dec 6.6 02:53:17 42° SW 03:12:22 51° S 12:27:21 10° SSE visible
07 Dec 6.8 00:10:09 41° SE 00:10:09 41° SE 09:14:24 10° SSE visible
07 Dec5.721:27:01E21:27:01E20:55:55SWvisible
09 Dec 7.3 05:25:51 10° W 06:39:32 34° SW 11:20:32 10° SW visible
10 Dec 6.7 02:39:13 44° SW 02:55:34 50° S 12:12:22 10° SSE visible
10 Dec 6.9 23:56:05 38° SE 23:56:05 38° SE 08:57:53 10° SE visible
11 Dec5.521:12:58E21:12:58E20:41:11SWvisible
13 Dec 7.3 05:10:01 10° W 06:23:21 33° SW 11:08:26 10° SW visible
14 Dec 6.8 02:25:12 45° SW 02:38:50 49° S 11:57:22 10° SSE visible
